Orbital Elements at Epoch 2459200.5 (2020-Dec-17.0) TDB
Reference: JPL 20 (heliocentric ecliptic J2000)
Element | Value | Uncertainty (1-sigma) | Units |
e | .2523956158790049 | 3.7823e-08 | |
a | 2.337801230030253 | 9.6243e-09 | au |
q | 1.747750448774072 | 8.7526e-08 | au |
i | 4.13435927726125 | 4.705e-06 | deg |
node | 306.3386583510419 | 5.3658e-05 | deg |
peri | 28.73425699104024 | 5.444e-05 | deg |
M | 1.708039196750842 | 1.0634e-05 | deg |
tp | 2459194.305516034150 (2020-Dec-10.80551603) | 3.8538e-05 | TDB |
period | 1305.598976854965 3.57 | 8.0623e-06 2.207e-08 | d yr |
n | .2757355102002285 | 1.7027e-09 | deg/d |
Q | 2.927852011286434 | 1.2053e-08 | au |
|
| | Orbit Determination Parameters
Additional Information
|